QPF
0.00 0.00 0.00 0.00 0.00 0.00 0.00 0.00 0.00 0.00 0.00 0.00 0.00 0.00 0.00 0.00 0.00 0.00 0.00 0.00 0.00 0.00 0.00 0.00 0.00 0.00 0.00 0.00 0.00 0.00 0.00 0.00 0.00 0.00 0.00 0.00 0.00 0.00 0.00 0.00 0.00 0.00 0.00 0.00 0.00
0.00 0.00 0.00 0.00 0.00 0.00 0.00 0.00 0.00 0.00 0.00 0.00 0.00 0.00 0.00 0.00 0.00 0.00 0.00 0.00 0.00 0.00 0.00 0.00 0.00 0.00 0.00 0.00 0.00 0.00 0.00 0.00 0.00 0.00 0.00 0.00 0.00 0.00 0.00 0.00 0.00 0.00 0.00 0.00 0.00
0.00 0.00 0.00 0.00 0.00 0.00 0.00 0.00 0.00 0.00 0.00 0.00 0.00 0.00 0.00 0.00 0.00 0.00 0.00 0.00 0.00 0.00 0.00 0.00 0.00 0.00 0.00 0.00 0.00 0.00 0.00 0.00 0.00 0.00 0.00 0.00 0.00 0.00 0.00 0.00 0.00 0.00 0.00 0.00 0.00
0.00 0.00 0.00 0.00 0.00 0.00 0.00 0.00 0.00 0.00 0.00 0.00 0.00 0.00 0.00 0.00 0.00 0.00 0.00 0.00 0.00 0.00 0.00 0.00 0.00 0.00 0.00 0.00 0.00 0.00 0.00 0.00 0.00 0.00 0.00 0.00 0.00 0.00 0.00 0.00 0.00 0.00 0.00 0.00 0.00
0.00 0.00 0.00 0.00 0.00 0.00 0.00 0.00 0.00 0.00 0.00 0.00 0.00 0.00 0.00 0.00 0.00 0.00 0.00 0.00 0.00 0.00 0.00 0.00 0.00 0.00 0.00 0.00 0.00 0.00 0.00 0.00 0.00 0.00 0.00 0.00 0.00 0.00 0.00 0.00 0.00 0.00 0.00 0.00 0.00
0.00 0.00 0.00 0.00 0.00 0.00 0.00 0.00 0.00 0.00 0.00 0.00 0.00 0.00 0.00 0.00 0.00 0.00 0.00 0.00 0.00 0.00 0.00 0.00 0.00 0.00 0.00 0.00 0.00 0.00 0.00 0.00 0.00 0.00 0.00 0.00 0.00 0.00 0.00 0.00 0.00 0.00 0.00 0.00 0.00
0.00 0.00 0.00 0.00 0.00 0.00 0.00 0.00 0.00 0.00 0.00 0.00 0.00 0.00 0.00 0.00 0.00 0.00 0.00 0.00 0.00 0.00 0.00 0.00 0.00 0.00 0.00 0.00 0.00 0.00 0.00 0.00 0.00 0.00 0.00 0.00 0.00 0.00 0.00 0.00 0.00 0.00 0.00 0.00 0.00
0.00 0.00 0.00 0.00 0.00 0.00 0.00 0.00 0.00 0.00 0.00 0.00 0.00 0.00 0.00 0.00 0.00 0.00 0.00 0.00 0.00 0.00 0.00 0.00 0.00 0.00 0.00 0.00 0.00 0.00 0.00 0.00 0.00 0.00 0.00 0.00 0.00 0.00 0.00 0.00 0.00 0.00 0.00 0.00 0.00
0.00 0.00 0.00 0.00 0.00 0.00 0.00 0.00 0.00 0.00 0.00 0.00 0.00 0.00 0.00 0.00 0.00 0.00 0.00 0.00 0.00 0.00 0.00 0.00 0.00 0.00 0.00 0.00 0.00 0.00 0.00 0.00 0.00 0.00 0.00 0.00 0.00 0.00 0.00 0.00 0.00 0.00 0.00 0.00 0.00
0.00 0.00 0.00 0.00 0.00 0.00 0.00 0.00 0.00 0.00 0.00 0.00 0.00 0.00 0.00 0.00 0.00 0.00 0.00 0.00 0.00 0.00 0.00 0.00 0.00 0.00 0.00 0.00 0.00 0.00 0.00 0.00 0.00 0.00 0.00 0.00 0.00 0.00 0.00 0.00 0.00 0.00 0.00 0.00 0.00
0.00 0.00 0.00 0.00 0.00 0.00 0.00 0.00 0.00 0.00 0.00 0.00 0.00 0.00 0.00 0.00 0.00 0.00 0.00 0.00 0.00 0.00 0.00 0.00 0.00 0.00 0.00 0.00 0.00 0.00 0.00 0.00 0.00 0.00 0.00 0.00 0.00 0.00 0.00 0.00 0.00 0.00 0.00 0.00 0.00
0.00 0.00 0.00 0.00 0.00 0.00 0.00 0.00 0.00 0.00 0.00 0.00 0.00 0.00 0.00 0.00 0.00 0.00 0.00 0.00 0.00 0.00 0.00 0.00 0.00 0.00 0.00 0.00 0.00 0.00 0.00 0.00 0.00 0.00 0.00 0.00 0.00 0.00 0.00 0.00 0.00 0.00 0.00 0.00 0.00
0.00 0.00 0.00 0.00 0.00 0.00 0.00 0.00 0.00 0.00 0.00 0.00 0.00 0.00 0.00 0.00 0.00 0.00 0.00 0.00 0.00 0.00 0.00 0.00 0.00 0.00 0.00 0.00 0.00 0.00 0.00 0.00 0.00 0.00 0.00 0.00 0.00 0.00 0.00 0.00 0.00 0.00 0.00 0.00 0.00
0.00 0.00 0.00 0.00 0.00 0.00 0.00 0.00 0.00 0.00 0.00 0.00 0.00 0.00 0.00 0.00 0.00 0.00 0.00 0.00 0.00 0.00 0.00 0.00 0.00 0.00 0.00 0.00 0.00 0.00 0.00 0.00 0.00 0.00 0.00 0.00 0.00 0.00 0.00 0.00 0.00 0.00 0.00 0.00 0.00
0.00 0.00 0.00 0.00 0.00 0.00 0.00 0.00 0.00 0.00 0.00 0.00 0.00 0.00 0.00 0.00 0.00 0.00 0.00 0.00 0.00 0.00 0.00 0.00 0.00 0.00 0.00 0.00 0.00 0.00 0.00 0.00 0.00 0.00 0.00 0.00 0.00 0.00 0.00 0.00 0.00 0.00 0.00 0.00 0.00
0.00 0.00 0.00 0.00 0.00 0.00 0.00 0.00 0.00 0.00 0.00 0.00 0.00 0.00 0.00 0.00 0.00 0.00 0.00 0.00 0.00 0.00 0.00 0.00 0.00 0.00 0.00 0.00 0.00 0.00 0.00 0.00 0.00 0.00 0.00 0.00 0.00 0.00 0.00 0.00 0.00 0.00 0.00 0.00 0.00
0.00 0.00 0.00 0.00 0.00 0.00 0.00 0.00 0.00 0.00 0.00 0.00 0.00 0.00 0.00 0.00 0.00 0.00 0.00 0.00 0.00 0.00 0.00 0.00 0.00 0.00 0.00 0.00 0.00 0.00 0.00 0.00 0.00 0.00 0.00 0.00 0.00 0.00 0.00 0.00 0.00 0.00 0.00 0.00 0.00
0.00 0.00 0.00 0.00 0.00 0.00 0.00 0.00 0.00 0.00 0.00 0.00 0.00 0.00 0.00 0.00 0.00 0.00 0.00 0.00 0.00 0.00 0.00 0.00 0.00 0.00 0.00 0.00 0.00 0.00 0.00 0.00 0.00 0.00 0.00 0.00 0.00 0.00 0.00 0.00 0.00 0.00 0.00 0.00 0.00
0.00 0.00 0.00 0.00 0.00 0.00 0.00 0.00 0.00 0.00 0.00 0.00 0.00 0.00 0.00 0.00 0.00 0.00 0.00 0.00 0.00 0.00 0.00 0.00 0.00 0.00 0.00 0.00 0.00 0.00 0.00 0.00 0.00 0.00 0.00 0.00 0.00 0.00 0.00 0.00 0.00 0.00 0.00 0.00 0.00
0.00 0.00 0.00 0.00 0.00 0.00 0.00 0.00 0.00 0.00 0.00 0.00 0.00 0.00 0.00 0.00 0.00 0.00 0.00 0.00 0.00 0.00 0.00 0.00 0.00 0.00 0.00 0.00 0.00 0.00 0.00 0.00 0.00 0.00 0.00 0.00 0.00 0.00 0.00 0.00 0.00 0.00 0.00 0.00 0.00
0.00 0.00 0.00 0.00 0.00 0.00 0.00 0.00 0.00 0.00 0.00 0.00 0.00 0.00 0.00 0.00 0.00 0.00 0.00 0.00 0.00 0.00 0.00 0.00 0.00 0.00 0.00 0.00 0.00 0.00 0.00 0.00 0.00 0.00 0.00 0.00 0.00 0.00 0.00 0.00 0.00 0.00 0.00 0.00 0.00
0.00 0.00 0.00 0.00 0.00 0.00 0.00 0.00 0.00 0.00 0.00 0.00 0.00 0.00 0.00 0.00 0.00 0.00 0.00 0.00 0.00 0.00 0.00 0.00 0.00 0.00 0.00 0.00 0.00 0.00 0.00 0.00 0.00 0.00 0.00 0.00 0.00 0.00 0.00 0.00 0.00 0.00 0.00 0.00 0.00
0.00 0.00 0.00 0.00 0.00 0.00 0.00 0.00 0.00 0.00 0.00 0.00 0.00 0.00 0.00 0.00 0.00 0.00 0.00 0.00 0.00 0.00 0.00 0.00 0.00 0.00 0.00 0.00 0.00 0.00 0.00 0.00 0.00 0.00 0.00 0.00 0.00 0.00 0.00 0.00 0.00 0.00 0.00 0.00 0.00
0.00 0.00 0.00 0.00 0.00 0.00 0.00 0.00 0.00 0.00 0.00 0.00 0.00 0.00 0.00 0.00 0.00 0.00 0.00 0.00 0.00 0.00 0.00 0.00 0.00 0.00 0.00 0.00 0.00 0.00 0.00 0.00 0.00 0.00 0.00 0.00 0.00 0.00 0.00 0.00 0.00 0.00 0.00 0.00 0.00
0.00 0.00 0.00 0.00 0.00 0.00 0.00 0.00 0.00 0.00 0.00 0.00 0.00 0.00 0.00 0.00 0.00 0.00 0.00 0.00 0.00 0.00 0.00 0.00 0.00 0.00 0.00 0.00 0.00 0.00 0.00 0.00 0.00 0.00 0.00 0.00 0.00 0.00 0.00 0.00 0.00 0.00 0.00 0.00 0.00
0.00 0.00 0.00 0.00 0.00 0.00 0.00 0.00 0.00 0.00 0.00 0.00 0.00 0.00 0.00 0.00 0.00 0.00 0.00 0.00 0.00 0.00 0.00 0.00 0.00 0.00 0.00 0.00 0.00 0.00 0.00 0.00 0.00 0.00 0.00 0.00 0.00 0.00 0.00 0.00 0.00 0.00 0.00 0.00 0.00
0.00 0.00 0.00 0.00 0.00 0.00 0.00 0.00 0.00 0.00 0.00 0.00 0.00 0.00 0.00 0.00 0.00 0.00 0.00 0.00 0.00 0.00 0.00 0.00 0.00 0.00 0.00 0.00 0.00 0.00 0.00 0.00 0.00 0.00 0.00 0.00 0.00 0.00 0.00 0.00 0.00 0.00 0.00 0.00 0.00
MSLP
1015.97 1015.51 1015.05 1014.60 1014.16 1013.72 1013.40 1013.04 1012.65 1012.38 1012.13 1011.89 1011.81 1011.64 1011.39 1011.20 1010.80 1010.72 1009.08 1006.82 1006.95 1007.27 1007.61 1008.26 1008.52 1008.52 1008.52 1008.13 1007.86 1007.59 1006.82 1006.12 1005.68 1005.28 1004.79 1004.36 1003.92 1003.27 1002.95 1002.94 1003.32 1003.64 1004.00 1004.78 1006.19
1016.01 1015.50 1014.95 1014.41 1013.86 1013.35 1013.03 1012.69 1012.32 1012.05 1011.87 1011.65 1011.50 1011.29 1011.15 1011.03 1010.41 1008.91 1006.55 1006.44 1006.68 1007.06 1007.43 1007.58 1007.92 1008.17 1007.96 1007.70 1007.50 1007.09 1006.61 1005.93 1005.61 1005.03 1004.61 1004.30 1004.03 1003.41 1002.91 1002.45 1002.78 1003.29 1004.53 1005.45 1006.42
1016.03 1015.43 1014.82 1014.21 1013.60 1013.05 1012.61 1012.28 1011.89 1011.60 1011.43 1011.37 1011.29 1011.02 1010.86 1010.79 1009.60 1006.67 1006.07 1006.31 1006.63 1006.86 1007.03 1007.16 1007.36 1007.41 1007.36 1007.34 1007.13 1006.97 1006.22 1005.80 1005.14 1004.85 1004.63 1004.05 1003.66 1003.39 1002.79 1002.16 1002.12 1002.53 1004.13 1005.39 1006.19
1015.94 1015.25 1014.54 1013.94 1013.34 1012.70 1012.12 1011.72 1011.35 1011.05 1010.92 1010.90 1010.94 1010.85 1010.65 1010.36 1008.44 1006.25 1005.83 1006.09 1006.59 1006.79 1006.84 1006.94 1007.20 1007.02 1006.91 1006.76 1006.70 1006.53 1005.97 1005.77 1005.01 1004.64 1004.52 1004.21 1003.68 1003.11 1002.84 1002.34 1002.20 1002.30 1003.49 1004.60 1005.46
1015.67 1014.93 1014.25 1013.59 1012.98 1012.37 1011.70 1011.18 1010.86 1010.54 1010.34 1010.42 1010.56 1010.55 1010.45 1009.22 1006.95 1006.31 1006.22 1006.42 1006.89 1006.94 1006.67 1006.67 1006.67 1006.66 1006.46 1006.52 1006.51 1006.24 1005.68 1005.30 1004.98 1004.77 1004.48 1004.07 1003.66 1003.62 1003.29 1002.75 1002.58 1002.41 1003.29 1003.97 1004.74
1015.55 1014.74 1014.03 1013.35 1012.66 1011.99 1011.23 1010.59 1010.26 1010.05 1010.01 1010.06 1010.21 1010.32 1009.60 1007.71 1006.15 1006.23 1006.42 1006.65 1006.58 1006.76 1006.66 1006.61 1006.29 1006.32 1006.31 1006.31 1006.27 1006.01 1005.59 1005.06 1004.69 1004.37 1004.20 1003.95 1003.76 1003.75 1003.56 1003.28 1002.56 1002.59 1003.04 1003.92 1004.62
1015.43 1014.59 1013.74 1013.04 1012.35 1011.66 1010.82 1010.17 1009.69 1009.54 1009.70 1009.79 1009.93 1009.87 1008.60 1006.84 1006.07 1006.26 1006.43 1006.34 1006.52 1006.46 1006.35 1006.38 1006.25 1006.18 1006.24 1006.13 1006.35 1005.99 1005.44 1004.67 1004.52 1004.28 1004.04 1004.06 1003.99 1004.61 1004.56 1003.62 1003.21 1002.99 1003.49 1004.15 1004.60
1015.30 1014.35 1013.44 1012.67 1011.96 1011.33 1010.54 1009.88 1009.26 1009.26 1009.55 1009.72 1009.82 1009.35 1007.26 1006.01 1006.08 1006.26 1006.40 1006.42 1006.55 1006.48 1006.29 1006.21 1006.25 1006.21 1006.28 1006.40 1006.16 1005.78 1005.52 1004.67 1004.51 1004.62 1004.40 1004.39 1004.44 1005.00 1005.11 1004.54 1003.95 1003.96 1003.94 1004.28 1004.70
1015.11 1014.19 1013.27 1012.37 1011.54 1011.00 1010.46 1009.90 1009.44 1009.49 1009.54 1009.76 1009.62 1008.63 1006.45 1005.88 1005.89 1005.65 1005.77 1005.82 1006.20 1006.36 1006.38 1006.29 1006.28 1006.46 1006.44 1006.15 1005.96 1006.08 1005.42 1005.25 1004.98 1004.89 1004.92 1004.65 1005.06 1005.40 1005.37 1004.86 1004.56 1004.62 1004.52 1004.53 1005.10
1015.04 1014.05 1013.12 1012.21 1011.35 1010.71 1010.28 1009.93 1009.68 1009.64 1009.68 1009.46 1008.95 1008.39 1006.15 1005.80 1005.41 1005.52 1005.81 1005.72 1005.76 1006.09 1006.26 1006.36 1006.45 1006.41 1006.56 1006.20 1005.90 1005.99 1005.77 1005.48 1005.25 1004.98 1004.87 1005.15 1005.67 1005.81 1005.64 1005.43 1005.33 1005.25 1005.22 1005.21 1005.30
1015.01 1013.99 1012.89 1011.99 1011.11 1010.55 1009.85 1009.69 1009.87 1009.57 1008.91 1008.67 1008.28 1007.41 1006.31 1005.69 1005.51 1005.27 1005.42 1005.56 1005.65 1005.76 1005.99 1006.57 1006.20 1005.95 1006.00 1006.34 1006.32 1006.46 1006.25 1005.93 1005.16 1005.26 1005.27 1005.42 1005.84 1006.08 1006.06 1005.65 1005.72 1005.56 1005.65 1005.71 1005.77
1014.88 1013.90 1012.81 1011.73 1011.06 1010.26 1009.90 1010.10 1011.02 1011.05 1009.55 1008.05 1007.60 1007.15 1006.43 1006.08 1005.36 1005.07 1005.19 1005.18 1005.50 1005.75 1006.31 1006.43 1005.93 1005.96 1006.24 1006.33 1006.43 1006.46 1006.21 1005.82 1005.33 1005.42 1005.27 1005.60 1005.79 1006.26 1006.33 1006.28 1006.18 1005.94 1005.95 1006.07 1005.95
1014.75 1014.01 1012.97 1011.50 1010.82 1010.28 1010.72 1010.84 1010.98 1010.72 1009.75 1007.58 1006.84 1006.31 1005.92 1005.79 1005.06 1004.77 1004.96 1005.03 1005.28 1005.72 1006.08 1006.03 1005.92 1005.88 1005.84 1006.19 1006.26 1006.32 1006.10 1005.86 1005.80 1005.35 1005.25 1005.38 1005.46 1005.90 1006.28 1006.40 1006.42 1006.22 1006.23 1006.15 1006.31
1014.60 1013.87 1013.07 1011.61 1011.07 1011.56 1010.94 1010.94 1010.80 1010.56 1009.01 1007.24 1006.15 1005.46 1005.66 1005.32 1004.83 1004.50 1004.58 1004.75 1005.28 1005.65 1006.12 1006.11 1006.08 1006.00 1005.99 1006.12 1006.37 1006.09 1006.35 1006.12 1005.75 1005.68 1005.25 1005.80 1005.19 1005.80 1006.15 1006.34 1006.42 1006.46 1006.31 1006.09 1006.17
1014.52 1013.86 1013.23 1012.69 1012.20 1011.40 1011.12 1010.81 1010.44 1010.17 1008.09 1006.53 1005.34 1004.87 1005.00 1005.01 1004.79 1004.57 1004.64 1004.63 1005.00 1005.55 1006.18 1006.21 1006.14 1006.17 1006.08 1006.32 1006.45 1006.29 1006.47 1006.34 1006.05 1005.74 1005.94 1006.03 1005.78 1005.32 1006.00 1005.94 1006.19 1006.58 1006.91 1006.90 1006.67
1014.24 1013.80 1013.29 1012.69 1012.37 1011.14 1010.85 1010.53 1010.04 1009.16 1007.28 1005.97 1005.22 1005.03 1004.89 1004.89 1004.69 1004.68 1004.61 1004.89 1005.39 1005.73 1006.17 1006.34 1006.49 1006.45 1006.54 1006.57 1006.65 1006.66 1006.56 1006.69 1006.70 1006.29 1006.02 1006.29 1006.16 1005.15 1005.37 1005.92 1006.04 1006.27 1006.87 1007.18 1007.18
1013.87 1013.22 1012.68 1012.25 1011.47 1011.10 1010.69 1010.01 1009.20 1007.94 1007.11 1006.42 1005.71 1005.58 1005.43 1005.39 1005.11 1005.10 1005.06 1005.43 1005.70 1006.04 1006.27 1006.62 1006.72 1006.86 1006.87 1006.63 1006.90 1006.72 1006.63 1006.41 1006.58 1006.53 1006.15 1006.96 1006.61 1005.49 1005.72 1006.20 1006.58 1006.70 1006.90 1007.29 1007.47
1013.49 1012.61 1012.28 1011.70 1011.29 1011.15 1010.29 1009.52 1008.62 1007.84 1007.03 1006.57 1006.24 1006.02 1005.89 1006.01 1005.88 1005.75 1005.85 1006.11 1006.45 1006.52 1006.74 1006.82 1007.06 1007.11 1007.29 1007.29 1007.38 1007.63 1007.80 1007.65 1007.45 1007.38 1007.11 1007.41 1006.45 1005.88 1006.26 1006.55 1006.90 1007.05 1007.25 1007.40 1007.51
1013.25 1012.11 1011.53 1011.16 1011.05 1010.91 1009.98 1009.13 1008.33 1007.95 1007.54 1006.95 1006.45 1006.27 1006.35 1006.37 1006.35 1006.11 1006.54 1006.72 1006.89 1007.00 1007.04 1007.31 1007.40 1007.70 1007.76 1007.76 1008.05 1008.16 1008.42 1009.18 1008.74 1009.20 1008.39 1007.32 1006.87 1006.27 1006.56 1006.78 1007.06 1007.18 1007.38 1007.56 1007.77
1014.22 1012.96 1011.38 1011.07 1010.90 1010.48 1009.89 1009.25 1008.89 1008.34 1007.78 1007.31 1006.80 1006.87 1006.74 1006.78 1006.61 1006.59 1006.98 1007.41 1007.39 1007.51 1007.61 1007.92 1007.79 1008.03 1008.21 1008.41 1008.59 1008.36 1009.25 1009.22 1009.10 1008.79 1008.25 1007.48 1007.10 1006.18 1006.35 1006.69 1007.25 1007.31 1007.52 1007.79 1007.88
1014.27 1012.81 1011.07 1010.92 1010.73 1010.26 1009.94 1009.77 1009.21 1008.46 1008.19 1007.59 1007.16 1007.15 1007.28 1007.26 1007.31 1007.37 1007.81 1008.03 1008.06 1008.00 1007.97 1008.18 1008.37 1008.38 1008.37 1008.39 1008.57 1009.08 1009.14 1009.81 1009.98 1009.85 1008.80 1007.79 1006.57 1006.57 1006.71 1007.17 1007.44 1007.54 1007.76 1008.04 1007.92
1015.13 1013.10 1011.24 1010.74 1010.76 1011.39 1010.64 1010.32 1009.96 1008.91 1008.41 1007.86 1007.50 1007.42 1007.50 1007.74 1007.78 1007.90 1008.09 1008.41 1008.52 1008.35 1008.41 1009.10 1008.83 1008.47 1008.63 1009.02 1009.35 1009.27 1009.28 1009.55 1009.65 1009.80 1009.45 1008.69 1006.77 1006.78 1007.14 1007.38 1007.89 1007.85 1008.01 1008.13 1008.12
1016.38 1014.33 1011.64 1011.12 1011.19 1011.20 1010.91 1010.44 1010.05 1009.30 1008.83 1008.41 1008.04 1008.00 1007.99 1008.15 1008.51 1008.52 1008.64 1008.94 1008.80 1008.79 1009.00 1009.20 1009.27 1008.86 1008.75 1009.18 1009.27 1009.12 1009.30 1009.75 1010.08 1010.11 1008.99 1008.35 1006.78 1007.12 1007.35 1007.56 1007.84 1008.10 1008.23 1008.33 1008.27
1017.07 1015.14 1012.85 1012.31 1012.64 1011.95 1011.44 1010.87 1010.20 1009.78 1009.39 1009.18 1008.83 1008.50 1008.47 1008.70 1008.91 1008.91 1008.96 1009.13 1009.27 1009.37 1009.59 1009.55 1009.71 1009.31 1008.92 1008.89 1009.16 1009.09 1009.10 1009.26 1009.59 1009.19 1008.10 1007.55 1006.80 1006.82 1007.17 1007.69 1007.90 1008.26 1008.44 1008.54 1008.53
1017.37 1016.29 1015.82 1013.99 1013.24 1012.78 1012.30 1011.80 1010.94 1010.23 1009.97 1009.67 1009.29 1009.20 1009.15 1009.21 1009.27 1009.20 1009.31 1009.44 1009.65 1009.83 1009.94 1009.93 1009.81 1009.86 1009.36 1009.31 1009.20 1008.93 1008.73 1008.65 1008.70 1008.30 1008.07 1006.98 1006.80 1007.02 1007.64 1008.16 1008.36 1008.72 1008.81 1008.70 1008.52
1017.71 1017.14 1016.29 1015.29 1014.46 1013.51 1012.90 1012.22 1011.67 1011.31 1010.88 1010.15 1009.85 1009.83 1009.85 1009.69 1009.54 1009.41 1009.58 1009.78 1009.68 1010.24 1010.28 1010.68 1010.18 1010.17 1009.65 1009.28 1009.09 1008.66 1008.37 1008.07 1007.93 1007.67 1007.42 1007.23 1007.01 1007.41 1007.95 1008.26 1008.51 1008.82 1008.98 1008.82 1008.66
1018.54 1018.10 1017.18 1015.76 1014.85 1014.06 1013.04 1012.70 1012.28 1012.03 1011.44 1011.14 1011.00 1010.52 1010.21 1010.47 1010.48 1010.18 1009.88 1009.97 1010.06 1010.39 1010.80 1011.13 1010.84 1010.67 1009.51 1009.43 1009.10 1008.62 1007.61 1007.59 1007.52 1007.36 1007.29 1007.16 1007.02 1007.60 1007.80 1008.30 1008.86 1009.21 1009.47 1009.45 1009.05
Thickness
5781 5785 5790 5794 5797 5800 5802 5805 5807 5808 5810 5811 5811 5811 5812 5814 5817 5817 5824 5846 5845 5843 5839 5830 5825 5822 5821 5816 5820 5820 5797 5788 5796 5797 5805 5828 5819 5841 5851 5840 5841 5844 5840 5841 5835
5781 5786 5790 5795 5799 5803 5805 5807 5809 5811 5812 5813 5814 5814 5815 5816 5821 5827 5852 5852 5850 5846 5836 5828 5818 5819 5813 5813 5815 5807 5793 5796 5812 5817 5813 5823 5823 5830 5832 5838 5836 5840 5839 5837 5831
5781 5786 5791 5796 5801 5804 5808 5810 5813 5815 5816 5816 5816 5817 5819 5819 5825 5843 5856 5854 5851 5848 5844 5838 5831 5824 5812 5815 5812 5806 5796 5810 5818 5823 5822 5822 5825 5834 5830 5829 5844 5843 5836 5833 5829
5781 5786 5792 5797 5802 5807 5811 5814 5817 5819 5820 5820 5820 5820 5821 5823 5815 5851 5859 5856 5852 5849 5843 5834 5825 5815 5809 5806 5816 5802 5814 5814 5822 5828 5822 5816 5828 5828 5831 5838 5853 5857 5849 5839 5832
5782 5788 5794 5799 5803 5808 5814 5818 5821 5823 5825 5824 5823 5823 5824 5828 5836 5855 5855 5853 5849 5845 5837 5829 5821 5817 5808 5811 5811 5805 5814 5821 5825 5823 5822 5828 5822 5821 5827 5845 5854 5858 5848 5843 5839
5781 5788 5794 5799 5805 5810 5816 5822 5825 5827 5827 5827 5825 5824 5829 5825 5856 5855 5853 5850 5847 5842 5835 5832 5826 5827 5816 5812 5807 5813 5814 5819 5822 5823 5822 5819 5821 5826 5831 5843 5849 5850 5848 5845 5839
5781 5788 5795 5800 5806 5811 5819 5825 5829 5830 5829 5828 5826 5827 5830 5835 5855 5853 5850 5848 5847 5843 5832 5837 5836 5824 5820 5810 5814 5811 5803 5816 5819 5822 5821 5822 5812 5803 5822 5837 5839 5844 5842 5840 5838
5780 5788 5796 5802 5808 5813 5819 5826 5831 5831 5829 5826 5825 5828 5829 5854 5853 5850 5848 5843 5845 5845 5840 5841 5838 5826 5817 5817 5810 5801 5800 5793 5812 5815 5817 5814 5793 5807 5817 5821 5825 5829 5835 5835 5835
5780 5787 5795 5802 5809 5814 5818 5823 5827 5826 5826 5824 5825 5827 5829 5853 5844 5851 5851 5840 5838 5837 5836 5837 5830 5813 5813 5800 5794 5791 5781 5783 5791 5807 5804 5807 5788 5802 5813 5815 5816 5819 5825 5829 5826
5777 5785 5793 5801 5808 5814 5817 5820 5822 5822 5823 5823 5825 5820 5837 5830 5843 5846 5847 5843 5832 5826 5819 5816 5809 5801 5795 5794 5771 5777 5778 5784 5780 5801 5801 5791 5783 5794 5804 5808 5807 5810 5813 5815 5817
5774 5782 5791 5800 5808 5812 5819 5820 5818 5817 5821 5816 5817 5818 5827 5839 5845 5839 5841 5832 5827 5818 5798 5798 5794 5787 5795 5791 5791 5783 5776 5773 5793 5798 5789 5784 5781 5785 5793 5801 5798 5802 5803 5806 5807
5771 5780 5788 5797 5804 5811 5814 5808 5799 5799 5799 5817 5817 5817 5826 5831 5820 5829 5838 5815 5807 5792 5793 5790 5784 5797 5792 5788 5783 5778 5774 5777 5792 5793 5791 5782 5778 5782 5786 5786 5789 5792 5795 5797 5802
5767 5774 5783 5795 5801 5806 5800 5798 5799 5800 5791 5810 5817 5817 5822 5825 5817 5818 5825 5813 5801 5788 5786 5781 5790 5796 5792 5782 5777 5775 5775 5776 5775 5788 5790 5782 5775 5774 5780 5780 5782 5788 5791 5795 5792
5763 5770 5778 5791 5796 5789 5794 5795 5797 5797 5785 5799 5812 5818 5818 5820 5808 5828 5828 5815 5798 5787 5782 5784 5792 5787 5783 5776 5775 5768 5778 5776 5776 5770 5762 5771 5754 5759 5767 5768 5773 5777 5781 5786 5786
5759 5764 5771 5776 5781 5786 5789 5791 5794 5792 5757 5799 5807 5829 5819 5808 5809 5811 5825 5813 5791 5788 5784 5776 5780 5776 5773 5772 5776 5769 5774 5771 5769 5766 5758 5755 5750 5765 5760 5761 5765 5768 5768 5773 5777
5756 5760 5764 5771 5773 5783 5785 5788 5789 5770 5751 5785 5801 5795 5798 5800 5802 5806 5807 5812 5803 5785 5780 5777 5787 5781 5774 5776 5773 5772 5767 5758 5754 5755 5740 5744 5742 5756 5758 5759 5764 5770 5765 5763 5764
5752 5760 5765 5767 5775 5777 5781 5783 5763 5755 5779 5772 5779 5784 5781 5779 5786 5787 5784 5778 5773 5760 5755 5764 5765 5773 5774 5764 5765 5765 5755 5738 5730 5731 5733 5733 5731 5750 5759 5757 5754 5754 5756 5754 5755
5749 5759 5762 5766 5769 5771 5776 5768 5742 5758 5763 5778 5774 5774 5769 5771 5772 5773 5768 5763 5768 5766 5752 5745 5737 5758 5764 5755 5745 5741 5739 5726 5701 5710 5723 5727 5726 5744 5752 5753 5748 5748 5746 5746 5744
5745 5756 5761 5765 5765 5767 5765 5746 5750 5752 5760 5761 5766 5758 5759 5764 5764 5767 5756 5755 5759 5762 5749 5740 5738 5753 5754 5754 5748 5732 5725 5725 5712 5698 5701 5720 5730 5748 5743 5740 5740 5739 5737 5734 5732
5729 5738 5751 5756 5759 5760 5750 5733 5742 5753 5757 5758 5747 5750 5742 5748 5753 5754 5747 5751 5750 5756 5757 5742 5729 5740 5741 5743 5740 5737 5729 5713 5711 5687 5682 5706 5705 5723 5733 5732 5728 5729 5728 5724 5723
5723 5731 5746 5749 5752 5747 5733 5730 5735 5751 5750 5748 5745 5740 5740 5739 5740 5737 5731 5741 5745 5745 5748 5741 5731 5728 5734 5728 5722 5720 5715 5703 5701 5694 5686 5684 5705 5730 5725 5722 5718 5721 5720 5715 5715
5704 5716 5737 5742 5731 5710 5722 5722 5726 5738 5744 5743 5746 5742 5738 5734 5732 5729 5726 5728 5738 5740 5730 5723 5722 5711 5717 5722 5719 5717 5711 5708 5689 5683 5687 5682 5700 5729 5719 5716 5710 5711 5709 5708 5705
5684 5695 5724 5728 5712 5713 5714 5718 5721 5726 5729 5731 5732 5735 5736 5727 5717 5722 5722 5729 5731 5728 5721 5720 5707 5698 5701 5710 5711 5706 5706 5698 5687 5678 5681 5673 5693 5715 5709 5707 5706 5699 5699 5696 5694
5671 5687 5703 5704 5693 5700 5701 5704 5709 5720 5719 5720 5720 5727 5723 5716 5715 5711 5715 5721 5722 5719 5709 5714 5697 5697 5690 5695 5700 5692 5698 5697 5684 5674 5684 5687 5692 5706 5704 5696 5696 5691 5689 5686 5682
5656 5664 5661 5681 5685 5684 5686 5689 5694 5699 5708 5710 5709 5709 5708 5700 5701 5702 5705 5708 5710 5706 5705 5706 5690 5691 5699 5696 5692 5694 5695 5694 5682 5685 5671 5693 5690 5695 5691 5684 5683 5680 5678 5675 5674
5643 5647 5652 5658 5659 5669 5670 5677 5680 5683 5687 5693 5694 5697 5697 5694 5699 5694 5697 5693 5696 5695 5695 5689 5685 5681 5682 5693 5686 5682 5691 5689 5687 5687 5686 5684 5681 5691 5684 5681 5677 5671 5667 5666 5665
5618 5622 5632 5642 5649 5655 5665 5666 5669 5672 5679 5682 5678 5683 5686 5686 5688 5693 5699 5694 5693 5688 5681 5677 5675 5667 5672 5680 5675 5666 5687 5684 5684 5688 5683 5670 5685 5681 5679 5673 5666 5661 5656 5653 5653